FW4212 Weather Reports


Display with metric or nautical units.
time (UTC)temp
F
wind
direction
speed
MPH
gust
MPH
rain 1hr
in
rain 24hr
in
rain mn
in
humidity
%
barometer
mb
20260509231500 70 209 0.0 4.0 0.00 0.00 0.00 70 1011.5
20260509231001 70 215 0.0 4.0 0.00 0.00 0.00 69 1011.7
20260509230601 70 215 0.0 4.0 0.00 0.00 0.00 70 1011.6
20260509230105 70 128 0.0 3.0 0.00 0.00 0.00 69 1011.5
20260509225600 71 97 1.0 4.0 0.00 0.00 0.00 69 1011.3
20260509225100 71 115 1.0 4.0 0.00 0.00 0.00 68 1011.2
20260509224603 71 221 0.0 5.0 0.00 0.00 0.00 69 1011.3
20260509224102 71 205 1.0 5.0 0.00 0.00 0.00 68 1011.3
20260509223559 71 224 2.0 5.0 0.00 0.00 0.00 68 1011.3
20260509223104 71 78 1.0 5.0 0.00 0.00 0.00 69 1011.2
20260509222603 71 225 0.0 5.0 0.00 0.00 0.00 68 1011.3
20260509222059 71 123 1.0 3.0 0.00 0.00 0.00 68 1011.2
20260509221558 71 182 0.0 6.0 0.00 0.00 0.00 68 1011.1
20260509221059 71 201 2.0 6.0 0.00 0.00 0.00 67 1010.9
20260509220557 71 215 1.0 6.0 0.00 0.00 0.00 67 1010.9
20260509220058 71 127 0.0 6.0 0.00 0.00 0.00 67 1010.8
20260509215558 71 134 0.0 4.0 0.00 0.00 0.00 67 1010.8
20260509215058 72 144 0.0 3.0 0.00 0.00 0.00 66 1010.8
20260509214557 72 113 0.0 6.0 0.00 0.00 0.00 66 1010.8
20260509214101 72 205 1.0 6.0 0.00 0.00 0.00 65 1010.8
20260509213557 72 123 1.0 6.0 0.00 0.00 0.00 64 1010.8
20260509213059 73 233 1.0 8.0 0.00 0.00 0.00 65 1010.7
20260509212557 72 114 2.0 7.0 0.00 0.00 0.00 65 1010.6
20260509212057 72 90 1.0 7.0 0.00 0.00 0.00 65 1010.7
20260509211557 72 118 1.0 7.0 0.00 0.00 0.00 66 1010.5
20260509211056 72 253 0.0 8.0 0.00 0.00 0.00 66 1010.6
20260509210556 72 167 2.0 8.0 0.00 0.00 0.00 65 1010.5
20260509210156 72 107 2.0 4.0 0.00 0.00 0.00 66 1010.5
20260509205555 72 131 1.0 8.0 0.00 0.00 0.00 66 1010.6
20260509205055 72 202 1.0 8.0 0.00 0.00 0.00 66 1010.6
20260509204601 72 111 0.0 5.0 0.00 0.00 0.00 64 1010.6
20260509204055 73 229 1.0 4.0 0.00 0.00 0.00 63 1010.6
20260509203555 73 199 1.0 6.0 0.00 0.00 0.00 63 1010.4
20260509203105 73 182 2.0 6.0 0.00 0.00 0.00 64 1010.6
20260509202554 72 111 1.0 6.0 0.00 0.00 0.00 66 1010.4
20260509202054 72 228 2.0 5.0 0.00 0.00 0.00 64 1010.3
20260509201554 72 210 0.0 9.0 0.00 0.00 0.00 64 1010.4
20260509201054 73 159 3.0 9.0 0.00 0.00 0.00 62 1010.4
20260509200552 73 72 2.0 5.0 0.00 0.00 0.00 61 1010.4
20260509200051 74 250 2.0 7.0 0.00 0.00 0.00 58 1010.7
20260509195553 75 144 3.0 7.0 0.00 0.00 0.00 59 1010.8
20260509195050 75 175 1.0 5.0 0.00 0.00 0.00 57 1010.9
20260509194551 76 211 1.0 4.0 0.00 0.00 0.00 56 1010.9
20260509194053 75 190 1.0 5.0 0.00 0.00 0.00 58 1010.7
20260509193549 75 240 1.0 8.0 0.00 0.00 0.00 55 1010.7
20260509193048 75 157 1.0 10.0 0.00 0.00 0.00 55 1010.7
20260509192548 74 130 4.0 10.0 0.00 0.00 0.00 60 1010.8
20260509192046 74 119 1.0 8.0 0.00 0.00 0.00 61 1010.9
20260509191546 74 113 0.0 8.0 0.00 0.00 0.00 62 1010.9
20260509191509 74 131 1.0 8.0 0.00 0.00 0.00 61 1010.8
20260509191045 73 192 1.0 9.0 0.00 0.00 0.00 63 1010.9
20260509190543 72 69 5.0 9.0 0.00 0.00 0.00 62 1010.9
20260509190042 72 80 3.0 8.0 0.00 0.00 0.00 61 1011.1
20260509185542 73 78 1.0 8.0 0.00 0.00 0.00 63 1011.1
20260509185042 74 128 3.0 8.0 0.00 0.00 0.00 61 1011.2
20260509184546 74 188 2.0 7.0 0.00 0.00 0.00 60 1011.1
20260509184040 73 75 2.0 10.0 0.00 0.00 0.00 58 1011.3
20260509183539 74 244 2.0 10.0 0.00 0.00 0.00 59 1011.3
20260509183039 74 206 2.0 8.0 0.00 0.00 0.00 56 1011.2
20260509182536 73 11 1.0 8.0 0.00 0.00 0.00 62 1011.2
20260509182036 73 289 0.0 7.0 0.00 0.00 0.00 63 1011.3
20260509181536 73 243 3.0 7.0 0.00 0.00 0.00 62 1011.3
20260509181035 73 200 3.0 5.0 0.00 0.00 0.00 56 1011.4
20260509180536 72 214 3.0 6.0 0.00 0.00 0.00 58 1011.4
20260509180058 73 242 2.0 6.0 0.00 0.00 0.00 62 1011.5
20260509175532 72 133 3.0 7.0 0.00 0.00 0.00 60 1011.6
20260509175032 71 202 2.0 7.0 0.00 0.00 0.00 60 1011.7
20260509174531 72 153 2.0 8.0 0.00 0.00 0.00 59 1011.8
20260509174031 72 274 3.0 8.0 0.00 0.00 0.00 58 1012.0
20260509173529 72 250 2.0 7.0 0.00 0.00 0.00 58 1011.9
20260509173035 72 216 2.0 6.0 0.00 0.00 0.00 60 1012.0
20260509172532 71 221 2.0 9.0 0.00 0.00 0.00 61 1012.1
20260509172028 71 220 1.0 6.0 0.00 0.00 0.00 63 1012.1
20260509171527 71 242 2.0 5.0 0.00 0.00 0.00 61 1012.1
20260509171027 71 269 2.0 6.0 0.00 0.00 0.00 61 1012.1
20260509170526 71 275 2.0 10.0 0.00 0.00 0.00 63 1012.0
20260509170044 70 109 4.0 10.0 0.00 0.00 0.00 63 1012.1
20260509165524 70 208 2.0 6.0 0.00 0.00 0.00 61 1012.5
20260509165023 70 240 2.0 6.0 0.00 0.00 0.00 64 1012.6
20260509164523 70 127 1.0 5.0 0.00 0.00 0.00 65 1012.4
20260509164023 69 215 1.0 7.0 0.00 0.00 0.00 64 1012.5
20260509163525 70 290 2.0 7.0 0.00 0.00 0.00 63 1012.6
20260509163025 70 84 0.0 7.0 0.00 0.00 0.00 68 1012.6
20260509162521 69 217 2.0 7.0 0.00 0.00 0.00 66 1012.7
20260509162019 69 285 1.0 5.0 0.00 0.00 0.00 67 1012.9
20260509161519 69 279 2.0 8.0 0.00 0.00 0.00 67 1012.9
20260509161018 68 105 1.0 3.0 0.00 0.00 0.00 68 1012.9
20260509160518 68 213 1.0 8.0 0.00 0.00 0.00 71 1013.0
20260509160017 68 114 1.0 8.0 0.00 0.00 0.00 72 1013.1
20260509155516 67 279 2.0 4.0 0.00 0.00 0.00 70 1013.1
20260509155016 67 219 1.0 9.0 0.00 0.00 0.00 72 1013.2
20260509154517 67 268 1.0 9.0 0.00 0.00 0.00 72 1013.2
20260509154017 67 202 1.0 4.0 0.00 0.00 0.00 70 1013.2
20260509153515 67 108 0.0 4.0 0.00 0.00 0.00 69 1013.1
20260509153018 67 246 0.0 4.0 0.00 0.00 0.00 70 1013.2
20260509152513 65 215 1.0 3.0 0.00 0.00 0.00 71 1013.1
20260509152015 65 161 0.0 3.0 0.00 0.00 0.00 75 1013.0
20260509151511 64 122 1.0 3.0 0.00 0.00 0.00 73 1013.1
20260509151011 64 202 0.0 4.0 0.00 0.00 0.00 72 1013.1
20260509150515 64 96 2.0 7.0 0.00 0.00 0.00 72 1013.2
20260509150011 64 193 2.0 7.0 0.00 0.00 0.00 72 1013.1
20260509145511 65 190 1.0 6.0 0.00 0.00 0.00 72 1013.1
20260509145011 65 227 0.0 3.0 0.00 0.00 0.00 72 1013.1
20260509144515 65 78 2.0 3.0 0.00 0.00 0.00 72 1013.1
20260509144008 64 228 1.0 3.0 0.00 0.00 0.00 75 1013.2
20260509143508 64 227 0.0 4.0 0.00 0.00 0.00 74 1013.2
20260509143011 63 271 0.0 4.0 0.00 0.00 0.00 75 1013.2
20260509142507 63 204 1.0 4.0 0.00 0.00 0.00 75 1013.2
20260509142010 63 93 1.0 3.0 0.00 0.00 0.00 74 1013.3
20260509141512 62 288 0.0 3.0 0.00 0.00 0.00 76 1013.3
20260509141004 62 22 0.0 3.0 0.00 0.00 0.00 76 1013.2
20260509140503 62 165 0.0 3.0 0.00 0.00 0.00 78 1013.3
20260509140003 62 262 1.0 4.0 0.00 0.00 0.00 78 1013.2
20260509135504 62 134 1.0 4.0 0.00 0.00 0.00 79 1013.2
20260509135002 61 92 1.0 4.0 0.00 0.00 0.00 78 1013.2
20260509134601 61 5 0.0 4.0 0.00 0.00 0.00 80 1013.1
20260509134059 60 94 1.0 4.0 0.00 0.00 0.00 79 1013.1
20260509133559 60 139 1.0 4.0 0.00 0.00 0.00 80 1013.2
20260509133108 60 186 1.0 5.0 0.00 0.00 0.00 80 1013.3
20260509132558 59 135 2.0 6.0 0.00 0.00 0.00 80 1013.4
20260509132056 59 111 1.0 6.0 0.00 0.00 0.00 81 1013.4
20260509131556 59 77 0.0 4.0 0.00 0.00 0.00 81 1013.4
20260509131053 58 136 0.0 2.0 0.00 0.00 0.00 81 1013.6
20260509130553 58 76 0.0 3.0 0.00 0.00 0.00 82 1013.7
20260509130052 58 65 0.0 4.0 0.00 0.00 0.00 84 1013.8
20260509125550 57 98 0.0 4.0 0.00 0.00 0.00 83 1014.0
20260509125049 56 117 0.0 2.0 0.00 0.00 0.00 84 1014.1
20260509124550 56 86 0.0 2.0 0.00 0.00 0.00 85 1014.2
20260509124048 56 89 0.0 4.0 0.00 0.00 0.00 85 1014.4
20260509123547 55 134 2.0 4.0 0.00 0.00 0.00 85 1014.3
20260509123046 55 120 0.0 2.0 0.00 0.00 0.00 87 1014.3
20260509122544 55 131 0.0 2.0 0.00 0.00 0.00 88 1014.4
20260509122043 54 238 0.0 0.0 0.00 0.00 0.00 91 1014.5
20260509121549 53 238 0.0 0.0 0.00 0.00 0.00 92 1014.4
20260509121041 52 238 0.0 0.0 0.00 0.00 0.00 94 1014.4
20260509120541 51 238 0.0 0.0 0.00 0.00 0.00 95 1014.4
20260509120041 50 238 0.0 0.0 0.00 0.00 0.00 95 1014.3
20260509115541 50 238 0.0 0.0 0.00 0.00 0.00 95 1014.2
20260509115040 49 238 0.0 0.0 0.00 0.00 0.00 96 1014.3
20260509114540 49 238 0.0 0.0 0.00 0.00 0.00 96 1014.3
20260509114040 48 238 0.0 0.0 0.00 0.00 0.00 95 1014.2
20260509113539 48 238 0.0 0.0 0.00 0.00 0.00 95 1014.1
20260509113042 48 238 0.0 0.0 0.00 0.00 0.00 96 1013.9
20260509112540 48 238 0.0 0.0 0.00 0.00 0.00 96 1013.8
20260509112040 47 238 0.0 0.0 0.00 0.00 0.00 96 1013.7
20260509111540 47 238 0.0 0.0 0.00 0.00 0.00 96 1013.6
20260509111039 47 238 0.0 0.0 0.00 0.00 0.00 96 1013.9
20260509110542 46 238 0.0 0.0 0.00 0.00 0.00 96 1013.9
20260509110038 46 238 0.0 0.0 0.00 0.00 0.00 95 1013.8
20260509105538 47 238 0.0 0.0 0.00 0.00 0.00 96 1014.0
20260509105038 46 238 0.0 0.0 0.00 0.00 0.00 96 1014.0
20260509104558 46 238 0.0 0.0 0.00 0.00 0.00 96 1013.8
20260509104038 46 238 0.0 0.0 0.00 0.00 0.00 96 1013.7
20260509103538 46 238 0.0 0.0 0.00 0.00 0.00 96 1013.8
20260509103040 46 238 0.0 0.0 0.00 0.00 0.00 96 1013.8
20260509102537 46 238 0.0 0.0 0.00 0.00 0.00 96 1013.8
20260509102040 45 238 0.0 0.0 0.00 0.00 0.00 95 1013.6
20260509101539 45 238 0.0 0.0 0.00 0.00 0.00 95 1013.6
20260509101035 45 238 0.0 0.0 0.00 0.00 0.00 95 1013.6
20260509100535 46 238 0.0 0.0 0.00 0.00 0.00 95 1013.5
20260509100035 46 238 0.0 0.0 0.00 0.00 0.00 95 1013.5
20260509095535 46 238 0.0 0.0 0.00 0.00 0.00 95 1013.4
20260509095036 46 238 0.0 0.0 0.00 0.00 0.00 95 1013.4
20260509094535 46 238 0.0 0.0 0.00 0.00 0.00 95 1013.3
20260509094034 46 238 0.0 0.0 0.00 0.00 0.00 95 1013.4
20260509093534 46 238 0.0 0.0 0.00 0.00 0.00 95 1013.4
20260509093033 46 238 0.0 0.0 0.00 0.00 0.00 95 1013.2
20260509092532 46 238 0.0 0.0 0.00 0.00 0.00 95 1013.3
20260509092032 46 238 0.0 0.0 0.00 0.00 0.00 95 1013.4
20260509091534 47 238 0.0 0.0 0.00 0.00 0.00 95 1013.4
20260509091031 47 238 0.0 0.0 0.00 0.00 0.00 95 1013.4
20260509090531 47 238 0.0 0.0 0.00 0.00 0.00 95 1013.6
20260509090045 47 238 0.0 0.0 0.00 0.00 0.00 95 1013.5
20260509085529 47 238 0.0 0.0 0.00 0.00 0.00 95 1013.4
20260509085029 47 238 0.0 0.0 0.00 0.00 0.00 94 1013.4
20260509084530 47 238 0.0 0.0 0.00 0.00 0.00 94 1013.4
20260509084029 47 238 0.0 0.0 0.00 0.00 0.00 94 1013.4
20260509083527 48 238 0.0 0.0 0.00 0.00 0.00 94 1013.5
20260509083027 48 238 0.0 0.0 0.00 0.00 0.00 94 1013.6
20260509082526 48 238 0.0 0.0 0.00 0.00 0.00 94 1013.7
20260509082026 48 238 0.0 0.0 0.00 0.00 0.00 94 1013.7
20260509081535 48 238 0.0 0.0 0.00 0.00 0.00 94 1013.8
20260509081025 48 238 0.0 0.0 0.00 0.00 0.00 94 1013.7
20260509080525 48 238 0.0 0.0 0.00 0.00 0.00 94 1013.6
20260509080025 48 238 0.0 0.0 0.00 0.00 0.00 94 1013.5
20260509075524 48 238 0.0 0.0 0.00 0.00 0.00 94 1013.7
20260509075024 48 238 0.0 0.0 0.00 0.00 0.00 94 1013.6
20260509074523 48 238 0.0 0.0 0.00 0.00 0.00 94 1013.5
20260509074022 49 238 0.0 0.0 0.00 0.00 0.00 94 1013.6
20260509073521 49 238 0.0 0.0 0.00 0.00 0.00 93 1013.8
20260509073036 49 238 0.0 0.0 0.00 0.00 0.00 93 1013.8
20260509072521 49 238 0.0 0.0 0.00 0.00 0.00 93 1013.9
20260509072018 49 238 0.0 0.0 0.00 0.00 0.00 93 1014.1
20260509071521 49 238 0.0 0.0 0.00 0.00 0.00 93 1014.1
20260509071017 49 238 0.0 0.0 0.00 0.00 0.00 93 1014.1
20260509070517 50 238 0.0 0.0 0.00 0.00 0.00 93 1014.1
20260509070033 50 238 0.0 0.0 0.00 0.00 0.00 93 1014.3
20260509065519 50 238 0.0 0.0 0.00 0.00 0.00 93 1014.5
20260509065014 50 238 0.0 0.0 0.00 0.00 0.00 93 1014.4
20260509064514 50 238 0.0 0.0 0.00 0.00 0.00 93 1014.5
20260509064017 50 238 0.0 0.0 0.00 0.00 0.00 92 1014.6
20260509063513 50 238 0.0 0.0 0.00 0.00 0.00 93 1014.7
20260509063017 50 238 0.0 0.0 0.00 0.00 0.00 92 1014.8
20260509062512 50 238 0.0 0.0 0.00 0.00 0.00 92 1014.8
20260509062012 50 238 0.0 0.0 0.00 0.00 0.00 92 1014.7
20260509061510 50 238 0.0 0.0 0.00 0.00 0.00 92 1014.8
20260509061009 50 238 0.0 0.0 0.00 0.00 0.00 92 1014.9
20260509060509 51 238 0.0 0.0 0.00 0.00 0.00 92 1015.0
20260509060010 50 238 0.0 0.0 0.00 0.00 0.00 92 1015.0
20260509055507 51 238 0.0 0.0 0.00 0.00 0.00 91 1015.1
20260509055011 51 238 0.0 0.0 0.00 0.00 0.00 91 1015.2
20260509054506 51 238 0.0 0.0 0.00 0.00 0.00 90 1015.2
20260509054006 51 238 0.0 0.0 0.00 0.00 0.00 90 1015.3
20260509053505 51 238 0.0 0.0 0.00 0.00 0.00 90 1015.4
20260509053008 51 238 0.0 0.0 0.00 0.00 0.00 90 1015.5
20260509052503 52 238 0.0 0.0 0.00 0.00 0.00 90 1015.6
20260509052003 52 238 0.0 0.0 0.00 0.00 0.00 89 1015.6
20260509051507 52 238 0.0 0.0 0.00 0.00 0.00 89 1015.5
20260509051002 52 238 0.0 0.0 0.00 0.00 0.00 89 1015.5
20260509050502 52 238 0.0 0.0 0.00 0.00 0.00 89 1015.5
20260509050006 52 238 0.0 0.0 0.00 0.00 0.00 89 1015.5
20260509045600 52 238 0.0 0.0 0.00 0.00 0.00 89 1015.6
20260509045100 52 238 0.0 0.0 0.00 0.00 0.00 88 1015.8
20260509044600 52 238 0.0 0.0 0.00 0.00 0.00 88 1016.0
20260509044100 52 238 0.0 0.0 0.00 0.00 0.00 88 1016.0
20260509043559 52 238 0.0 0.0 0.00 0.00 0.00 88 1016.0
20260509043100 52 238 0.0 0.0 0.00 0.00 0.00 88 1015.9
20260509042559 52 238 0.0 0.0 0.00 0.00 0.00 88 1015.8
20260509042102 52 238 0.0 0.0 0.00 0.00 0.00 88 1015.9
20260509041559 52 238 0.0 0.0 0.00 0.00 0.00 88 1015.9
20260509041059 52 238 0.0 0.0 0.00 0.00 0.00 88 1015.9
20260509040557 52 238 0.0 0.0 0.00 0.00 0.00 87 1016.0
20260509040056 52 238 0.0 0.0 0.00 0.00 0.00 87 1015.9
20260509035556 53 238 0.0 0.0 0.00 0.00 0.00 86 1016.0
20260509035056 53 238 0.0 0.0 0.00 0.00 0.00 86 1016.0
20260509034556 53 238 0.0 0.0 0.00 0.00 0.00 86 1016.0
20260509034055 53 238 0.0 0.0 0.00 0.00 0.00 85 1016.1
20260509033555 53 238 0.0 0.0 0.00 0.00 0.00 85 1016.1
20260509033055 54 238 0.0 0.0 0.00 0.00 0.00 85 1016.0
20260509032555 54 238 0.0 0.0 0.00 0.00 0.00 84 1016.1
20260509032054 54 238 0.0 0.0 0.00 0.00 0.00 83 1016.1
20260509031554 54 238 0.0 0.0 0.00 0.00 0.00 82 1016.1
20260509031054 54 238 0.0 0.0 0.00 0.00 0.00 82 1016.1
20260509030554 54 238 0.0 0.0 0.00 0.00 0.00 82 1016.2
20260509030056 55 238 0.0 0.0 0.00 0.00 0.00 82 1016.1
20260509025555 55 238 0.0 0.0 0.00 0.00 0.00 82 1016.1
20260509025053 55 240 0.0 0.0 0.00 0.00 0.00 82 1016.1
20260509024553 55 240 0.0 0.0 0.00 0.00 0.00 82 1016.1
20260509024054 55 240 0.0 0.0 0.00 0.00 0.00 81 1016.3
20260509023555 55 240 0.0 0.0 0.00 0.00 0.00 80 1016.4
20260509023053 55 240 0.0 0.0 0.00 0.00 0.00 80 1016.5
20260509022553 55 240 0.0 0.0 0.00 0.00 0.00 80 1016.3
20260509022053 56 240 0.0 0.0 0.00 0.00 0.00 79 1016.4
20260509021553 56 240 0.0 0.0 0.00 0.00 0.00 78 1016.3
20260509021052 56 240 0.0 0.0 0.00 0.00 0.00 78 1016.3
20260509020552 56 240 0.0 0.0 0.00 0.00 0.00 77 1016.3
20260509020057 56 240 0.0 0.0 0.00 0.00 0.00 76 1016.2
20260509015552 57 240 0.0 0.0 0.00 0.00 0.00 76 1016.1
20260509015052 57 240 0.0 0.0 0.00 0.00 0.00 74 1016.2
20260509014552 57 240 0.0 0.0 0.00 0.00 0.00 73 1016.0
20260509014056 57 240 0.0 0.0 0.00 0.00 0.00 74 1016.0
20260509013553 57 240 0.0 0.0 0.00 0.00 0.00 73 1016.0
20260509013056 58 240 0.0 0.0 0.00 0.00 0.00 71 1016.2
20260509012551 58 240 0.0 0.0 0.00 0.00 0.00 71 1016.0
20260509012051 58 240 0.0 0.0 0.00 0.00 0.00 71 1016.0
20260509011552 58 240 0.0 0.0 0.00 0.00 0.00 71 1015.8
20260509011050 58 240 0.0 0.0 0.00 0.00 0.00 70 1015.8
20260509010550 59 240 0.0 0.0 0.00 0.00 0.00 70 1015.8
20260509010050 59 240 0.0 0.0 0.00 0.00 0.00 68 1016.0
20260509005550 60 240 0.0 0.0 0.00 0.00 0.00 67 1015.9
20260509005052 60 240 0.0 0.0 0.00 0.00 0.00 65 1015.9
20260509004555 60 240 0.0 0.0 0.00 0.00 0.00 65 1015.9
20260509004050 60 240 0.0 0.0 0.00 0.00 0.00 64 1015.7
20260509003550 61 240 0.0 0.0 0.00 0.00 0.00 64 1015.6
20260509003050 61 240 0.0 0.0 0.00 0.00 0.00 64 1015.6
20260509002549 61 240 0.0 0.0 0.00 0.00 0.00 63 1015.6
20260509002051 61 240 0.0 0.0 0.00 0.00 0.00 63 1015.6
20260509001550 62 240 0.0 0.0 0.00 0.00 0.00 62 1015.6
20260509001048 62 240 0.0 0.0 0.00 0.00 0.00 62 1015.6
20260509000548 63 240 0.0 1.0 0.00 0.00 0.00 60 1015.5
20260509000049 63 210 0.0 2.0 0.00 0.00 0.00 59 1015.6
20260508235648 63 230 0.0 2.0 0.00 0.00 0.00 59 1015.6
20260508235048 63 223 0.0 3.0 0.00 0.00 0.00 58 1015.4
20260508234553 64 225 0.0 3.0 0.00 0.00 0.00 57 1015.4
20260508234047 64 210 0.0 3.0 0.00 0.00 0.00 56 1015.2
20260508233547 64 163 0.0 3.0 0.00 0.00 0.00 57 1015.4
20260508233051 64 215 0.0 2.0 0.00 0.00 0.00 56 1015.3
20260508232547 64 215 0.0 2.0 0.00 0.00 0.00 56 1015.3
20260508232047 65 186 0.0 2.0 0.00 0.00 0.00 57 1015.3
20260508231547 65 220 0.0 5.0 0.00 0.00 0.00 55 1015.3